Data for 10/04/2016

Time Sea-Level Adjusted Pressure Absolute Pressure Temperature Relative Humidity Dew Point   
(mb) (inHg) (mb) (inHg) (C) (F) (%) (C) (F)
00:05 1011 29.85 841 24.83 4.2 39.6 87 2.3 36.2
00:10 1011 29.85 841 24.83 4.2 39.5 87 2.1 35.8
00:15 1011 29.85 841 24.83 4.2 39.5 86 2.1 35.7
00:20 1011 29.85 841 24.83 4.1 39.4 87 2.1 35.7
00:25 1011 29.85 841 24.83 4 39.3 87 2.1 35.8
00:30 1011 29.85 841 24.83 4 39.2 86 1.9 35.3
00:35 1011 29.85 841 24.83 4 39.1 86 1.9 35.4
00:40 1011 29.85 841 24.83 3.9 39.1 88 2.1 35.7
00:45 1011 29.85 841 24.83 3.9 39 88 2.1 35.8
00:50 1011 29.85 841 24.83 3.9 39 89 2.2 36
00:55 1011 29.85 841 24.83 3.9 39 89 2.3 36.1
01:00 1011 29.85 841 24.83 3.9 39.1 89 2.3 36.1
01:05 1011 29.85 841 24.83 4 39.2 88 2.2 35.9
01:10 1011 29.85 840 24.81 4.1 39.3 88 2.3 36.1
01:15 1011 29.85 840 24.81 4.1 39.3 87 2.1 35.7
01:20 1011 29.85 840 24.81 4.1 39.4 86 1.9 35.5
01:25 1011 29.85 840 24.81 4.1 39.4 86 1.9 35.5
01:30 1011 29.85 840 24.81 4.1 39.4 85 1.9 35.4
01:35 1011 29.85 840 24.81 4.1 39.3 84 1.7 35
01:40 1011 29.85 840 24.81 4 39.3 85 1.8 35.2
01:45 1011 29.85 840 24.81 4 39.2 85 1.8 35.2
01:50 1011 29.85 840 24.81 4 39.2 86 1.8 35.2
01:55 1011 29.85 840 24.81 4 39.2 85 1.7 35
02:00 1011 29.85 840 24.81 4 39.2 85 1.7 35.1
02:05 1011 29.85 840 24.81 4 39.2 86 1.8 35.3
02:10 1011 29.85 840 24.81 4 39.2 86 1.8 35.2
02:15 1011 29.85 840 24.81 4 39.2 86 1.8 35.3
02:20 1011 29.85 840 24.81 3.9 39.1 86 1.9 35.3
02:25 1011 29.85 840 24.81 3.9 39.1 86 1.8 35.2
02:30 1011 29.85 840 24.81 4 39.2 85 1.7 35.1
02:35 1011 29.85 840 24.81 4 39.2 85 1.7 35
02:40 1011 29.85 840 24.81 4 39.3 85 1.7 35
02:45 1011 29.85 840 24.81 4.1 39.4 83 1.5 34.7
02:50 1011 29.85 840 24.81 4.1 39.5 82 1.4 34.5
02:55 1011 29.85 840 24.81 4.2 39.6 83 1.5 34.7
03:00 1011 29.85 840 24.81 4.3 39.8 82 1.5 34.7
03:05 1011 29.85 840 24.81 4.4 39.9 81 1.4 34.5
03:10 1011 29.85 840 24.81 4.5 40.1 81 1.5 34.7
03:15 1011 29.85 840 24.81 4.5 40 81 1.5 34.7
03:20 1011 29.85 840 24.81 4.5 40.1 80 1.4 34.5
03:25 1011 29.85 840 24.81 4.5 40.1 81 1.5 34.6
03:30 1011 29.85 840 24.81 4.5 40.1 80 1.4 34.5
03:35 1011 29.85 840 24.81 4.5 40.1 80 1.4 34.5
03:40 1011 29.85 840 24.81 4.5 40.1 80 1.4 34.5
03:45 1011 29.85 840 24.81 4.6 40.2 79 1.3 34.4
03:50 1011 29.85 840 24.81 4.6 40.2 81 1.5 34.7
03:55 1011 29.85 840 24.81 4.5 40.2 81 1.5 34.8
04:00 1011 29.85 840 24.81 4.4 40 82 1.6 34.9
04:05 1011 29.85 840 24.81 4.4 39.9 82 1.5 34.8
04:10 1011 29.85 840 24.81 4.4 40 81 1.4 34.6
04:15 1011 29.85 840 24.81 4.5 40.1 80 1.4 34.5
04:20 1011 29.85 840 24.81 4.6 40.2 80 1.4 34.6
04:25 1011 29.85 840 24.81 4.6 40.2 81 1.6 34.9
04:30 1011 29.85 840 24.81 4.5 40.1 82 1.7 35.1
04:35 1011 29.85 840 24.81 4.4 39.9 83 1.8 35.3
04:40 1011 29.85 840 24.81 4.4 39.9 83 1.7 35
04:45 1011 29.85 840 24.81 4.4 40 82 1.7 35.1
04:50 1011 29.85 840 24.81 4.5 40 83 1.8 35.2
04:55 1011 29.85 840 24.81 4.5 40.1 83 1.8 35.2
05:00 1011 29.85 840 24.81 4.5 40.2 83 1.8 35.3
05:05 1011 29.85 840 24.81 4.5 40.2 82 1.8 35.2
05:10 1011 29.85 840 24.81 4.6 40.2 81 1.6 34.9
05:15 1011 29.85 840 24.81 4.6 40.3 81 1.6 35
05:20 1011 29.85 841 24.83 4.7 40.4 81 1.7 35.1
05:25 1011 29.85 841 24.83 4.7 40.5 80 1.6 34.8
05:30 1011 29.85 840 24.81 4.8 40.6 79 1.5 34.7
05:35 1011 29.85 840 24.81 4.8 40.6 80 1.6 34.8
05:40 1011 29.85 840 24.81 4.7 40.5 81 1.7 35.1
05:45 1011 29.85 841 24.83 4.7 40.5 81 1.8 35.3
05:50 1011 29.85 841 24.83 4.7 40.5 82 1.9 35.5
05:55 1011 29.85 841 24.83 4.7 40.5 83 2.1 35.8
06:00 1011 29.85 840 24.81 4.6 40.3 82 1.8 35.3
06:05 1011 29.85 841 24.83 4.6 40.3 82 1.9 35.3
06:10 1011 29.85 841 24.83 4.7 40.4 83 2.1 35.7
06:15 1011 29.85 841 24.83 4.6 40.3 85 2.2 36
06:20 1011 29.85 841 24.83 4.5 40.2 86 2.4 36.2
06:25 1011 29.85 841 24.83 4.4 39.9 86 2.3 36.2
06:30 1012 29.88 841 24.83 4.3 39.8 87 2.3 36.1
06:35 1012 29.88 841 24.83 4.3 39.7 87 2.3 36.2
06:40 1012 29.88 841 24.83 4.3 39.7 87 2.3 36.1
06:45 1012 29.88 841 24.83 4.3 39.8 87 2.3 36.2
06:50 1012 29.88 841 24.83 4.4 39.8 87 2.3 36.2
06:55 1012 29.88 841 24.83 4.3 39.8 87 2.3 36.1
07:00 1012 29.88 841 24.83 4.3 39.7 86 2.2 36
07:05 1012 29.88 841 24.83 4.3 39.7 86 2.2 36
07:10 1012 29.88 841 24.83 4.4 39.9 86 2.3 36.1
07:15 1012 29.88 841 24.83 4.5 40 86 2.4 36.3
07:20 1012 29.88 841 24.83 4.5 40 86 2.3 36.2
07:25 1012 29.88 841 24.83 4.6 40.2 85 2.3 36.2
07:30 1012 29.88 841 24.83 4.4 40 85 2.1 35.8
07:35 1012 29.88 841 24.83 4.3 39.7 84 1.9 35.4
07:40 1012 29.88 841 24.83 4.2 39.5 86 2 35.5
07:45 1012 29.88 841 24.83 4 39.2 86 1.8 35.2
07:50 1012 29.88 841 24.83 3.9 39 87 1.9 35.5
07:55 1012 29.88 842 24.86 3.9 39 88 2 35.6
08:00 1012 29.88 842 24.86 3.9 39 85 1.6 34.9
08:05 1012 29.88 842 24.86 4 39.2 84 1.5 34.7
08:10 1013 29.91 842 24.86 4 39.2 83 1.3 34.4
08:15 1013 29.91 842 24.86 3.9 39.1 81 0.9 33.7
08:20 1013 29.91 842 24.86 3.9 39.1 81 0.9 33.7
08:25 1013 29.91 842 24.86 3.9 39.1 79 0.7 33.3
08:30 1013 29.91 842 24.86 3.9 39 79 0.7 33.2
08:35 1013 29.91 842 24.86 4 39.2 81 1 33.7
08:40 1013 29.91 842 24.86 4 39.3 80 1 33.7
08:45 1013 29.91 842 24.86 4 39.3 80 0.9 33.6
08:50 1013 29.91 842 24.86 4 39.3 81 1 33.8
08:55 1013 29.91 842 24.86 4 39.2 79 0.6 33.1
09:00 1013 29.91 842 24.86 4.1 39.4 80 1 33.8
09:05 1013 29.91 843 24.89 4.1 39.4 79 0.8 33.4
09:10 1013 29.91 843 24.89 4.1 39.3 79 0.7 33.3
09:15 1013 29.91 843 24.89 4.1 39.3 79 0.7 33.3
09:20 1013 29.91 843 24.89 4.1 39.3 78 0.6 33
09:25 1013 29.91 843 24.89 4.1 39.3 80 0.8 33.5
09:30 1014 29.94 843 24.89 4.2 39.6 78 0.7 33.3
09:35 1014 29.94 843 24.89 4.3 39.7 78 0.8 33.4
09:40 1014 29.94 843 24.89 4.4 39.8 77 0.7 33.2
09:45 1014 29.94 843 24.89 4.4 39.8 75 0.2 32.4
09:50 1014 29.94 843 24.89 4.5 40 75 0.5 32.8
09:55 1014 29.94 843 24.89 4.5 40.1 73 0.1 32.2
10:00 1014 29.94 843 24.89 4.6 40.2 73 0.1 32.1
10:05 1014 29.94 843 24.89 4.6 40.3 72 0.1 32.1
10:10 1014 29.94 843 24.89 4.6 40.3 74 0.4 32.8
10:15 1014 29.94 843 24.89 4.7 40.5 73 0.2 32.4
10:20 1014 29.94 843 24.89 4.7 40.5 74 0.5 32.9
10:25 1014 29.94 843 24.89 4.7 40.5 71 -0 31.9
10:30 1014 29.94 843 24.89 4.6 40.3 72 0 32
10:35 1014 29.94 843 24.89 4.6 40.3 72 0.1 32.2
10:40 1014 29.94 843 24.89 4.8 40.7 71 0 32.1
10:45 1014 29.94 843 24.89 4.7 40.5 76 0.9 33.6
10:50 1014 29.94 843 24.89 4.5 40.2 76 0.6 33.1
10:55 1014 29.94 843 24.89 4.2 39.5 73 -0.1 31.8
11:00 1014 29.94 843 24.89 4.2 39.5 74 0 32.1
11:05 1014 29.94 843 24.89 4.4 39.9 72 -0.2 31.6
11:10 1014 29.94 843 24.89 4.3 39.8 69 -0.8 30.5
11:15 1014 29.94 843 24.89 4.6 40.3 70 -0.4 31.2
11:20 1014 29.94 843 24.89 4.8 40.6 69 -0.4 31.3
11:25 1014 29.94 843 24.89 5 41 67 -0.6 30.9
11:30 1014 29.94 843 24.89 5.3 41.5 65 -0.8 30.6
11:35 1014 29.94 843 24.89 5.4 41.7 64 -0.9 30.3
11:40 1014 29.94 843 24.89 5.6 42.1 63 -0.9 30.4
11:45 1014 29.94 843 24.89 5.8 42.5 62 -0.9 30.4
11:50 1014 29.94 843 24.89 6.1 43.1 62 -0.6 30.9
11:55 1014 29.94 843 24.89 6.5 43.7 58 -1.3 29.7
12:00 1014 29.94 843 24.89 6.9 44.3 54 -1.8 28.7
12:05 1014 29.94 843 24.89 7 44.6 52 -2.1 28.3
12:10 1014 29.94 843 24.89 7.2 44.9 51 -2.2 28
12:15 1014 29.94 843 24.89 7.2 45 50 -2.5 27.5
12:20 1014 29.94 843 24.89 7.2 45 52 -1.9 28.6
12:25 1014 29.94 843 24.89 7.4 45.3 50 -2.4 27.7
12:30 1014 29.94 843 24.89 7.6 45.7 49 -2.5 27.5
12:35 1014 29.94 843 24.89 8 46.3 47 -2.7 27.1
12:40 1014 29.94 843 24.89 7.7 45.8 47 -2.8 26.9
12:45 1014 29.94 843 24.89 7.5 45.5 49 -2.6 27.3
12:50 1014 29.94 843 24.89 7.8 46 46 -3.1 26.4
12:55 1014 29.94 843 24.89 8.5 47.2 42 -3.8 25.2
13:00 1014 29.94 843 24.89 8.3 47 43 -3.4 25.9
13:05 1014 29.94 843 24.89 8.6 47.4 43 -3.2 26.2
13:10 1014 29.94 843 24.89 8.9 48 42 -3.4 25.8
13:15 1014 29.94 843 24.89 8.4 47 43 -3.3 26
13:20 1014 29.94 843 24.89 8.4 47.2 42 -3.9 25
13:25 1014 29.94 843 24.89 8.8 47.8 44 -2.8 26.9
13:30 1014 29.94 843 24.89 8.4 47.1 49 -1.7 29
13:35 1014 29.94 843 24.89 7.8 46.1 49 -2.1 28.2
13:40 1014 29.94 843 24.89 7.3 45.2 51 -2.1 28.2
13:45 1013 29.91 843 24.89 7.5 45.5 50 -2.2 28.1
13:50 1013 29.91 843 24.89 7.9 46.2 45 -3.3 26
13:55 1013 29.91 843 24.89 8.5 47.3 43 -3.4 25.8
14:00 1013 29.91 843 24.89 9.1 48.5 40 -3.7 25.3
14:05 1013 29.91 843 24.89 9 48.2 42 -3.1 26.4
14:10 1013 29.91 843 24.89 8.8 47.8 44 -2.9 26.8
14:15 1013 29.91 843 24.89 8.6 47.5 43 -3.2 26.2
14:20 1013 29.91 843 24.89 8.2 46.7 48 -2.1 28.2
14:25 1013 29.91 843 24.89 7.7 45.9 49 -2.4 27.7
14:30 1013 29.91 843 24.89 7.6 45.7 51 -1.8 28.8
14:35 1013 29.91 843 24.89 8.1 46.5 50 -1.6 29.1
14:40 1013 29.91 843 24.89 8 46.4 50 -1.9 28.6
14:45 1013 29.91 843 24.89 7.9 46.3 50 -1.9 28.6
14:50 1013 29.91 843 24.89 8 46.4 47 -2.7 27.1
14:55 1013 29.91 842 24.86 8 46.4 47 -2.5 27.5
15:00 1013 29.91 843 24.89 8.4 47 48 -1.9 28.5
15:05 1013 29.91 842 24.86 8.8 47.8 49 -1.4 29.4
15:10 1013 29.91 842 24.86 8.6 47.5 48 -1.8 28.8
15:15 1013 29.91 842 24.86 8.1 46.6 50 -1.6 29.2
15:20 1013 29.91 842 24.86 7.7 45.9 52 -1.6 29.2
15:25 1013 29.91 842 24.86 7.2 45 52 -1.8 28.7
15:30 1013 29.91 842 24.86 6.9 44.4 55 -1.5 29.2
15:35 1013 29.91 842 24.86 6.7 44.1 56 -1.4 29.5
15:40 1013 29.91 842 24.86 7 44.5 55 -1.4 29.4
15:45 1013 29.91 843 24.89 6.9 44.5 55 -1.4 29.5
15:50 1013 29.91 843 24.89 6.9 44.4 55 -1.5 29.3
15:55 1013 29.91 843 24.89 7 44.6 55 -1.5 29.4
16:00 1013 29.91 843 24.89 7.1 44.7 55 -1.5 29.4
16:05 1013 29.91 843 24.89 7 44.5 53 -2 28.3
16:10 1013 29.91 843 24.89 6.9 44.3 53 -2 28.5
16:15 1013 29.91 843 24.89 6.9 44.5 55 -1.5 29.2
16:20 1013 29.91 843 24.89 7.1 44.7 55 -1.4 29.4
16:25 1013 29.91 843 24.89 7.1 44.9 52 -2 28.5
16:30 1013 29.91 843 24.89 7.1 44.9 52 -2 28.5
16:35 1013 29.91 843 24.89 7.5 45.4 53 -1.5 29.2
16:40 1013 29.91 843 24.89 7.8 46 51 -1.8 28.8
16:45 1014 29.94 843 24.89 8.2 46.7 49 -1.9 28.6
16:50 1014 29.94 843 24.89 8.3 47 49 -1.8 28.8
16:55 1014 29.94 843 24.89 8.4 47.1 48 -2 28.4
17:00 1014 29.94 843 24.89 8.2 46.7 49 -1.8 28.8
17:05 1013 29.91 843 24.89 8.1 46.5 50 -1.7 29
17:10 1013 29.91 843 24.89 7.8 46 51 -1.7 29
17:15 1013 29.91 843 24.89 7.7 45.9 52 -1.6 29.2
17:20 1014 29.94 843 24.89 7.7 45.9 50 -1.9 28.6
17:25 1013 29.91 843 24.89 7.4 45.3 53 -1.5 29.3
17:30 1013 29.91 843 24.89 7.2 45 54 -1.4 29.5
17:35 1014 29.94 843 24.89 7.1 44.8 55 -1.3 29.6
17:40 1014 29.94 843 24.89 7.1 44.7 55 -1.3 29.7
17:45 1014 29.94 843 24.89 7.1 44.7 56 -1 30.1
17:50 1014 29.94 843 24.89 7 44.6 55 -1.4 29.6
17:55 1014 29.94 843 24.89 7 44.6 56 -1.3 29.7
18:00 1014 29.94 843 24.89 6.9 44.3 57 -1.1 30
18:05 1014 29.94 843 24.89 6.7 44.1 58 -1 30.3
18:10 1014 29.94 843 24.89 6.6 43.9 59 -0.9 30.5
18:15 1014 29.94 843 24.89 6.6 43.8 59 -0.8 30.6
18:20 1014 29.94 843 24.89 6.6 43.8 59 -0.9 30.4
18:25 1014 29.94 843 24.89 6.5 43.7 60 -0.7 30.7
18:30 1014 29.94 843 24.89 6.4 43.4 66 0.4 32.8
18:35 1014 29.94 843 24.89 5.9 42.6 68 0.3 32.6
18:40 1014 29.94 843 24.89 5.7 42.3 69 0.5 32.9
18:45 1014 29.94 843 24.89 5.6 42.1 70 0.6 33
18:50 1014 29.94 843 24.89 5.5 41.9 70 0.5 32.9
18:55 1014 29.94 843 24.89 5.4 41.8 71 0.5 32.9
19:00 1014 29.94 843 24.89 5.2 41.4 72 0.5 32.9
19:05 1014 29.94 843 24.89 5.2 41.4 71 0.4 32.8
19:10 1014 29.94 843 24.89 5.2 41.4 70 0.2 32.4
19:15 1014 29.94 843 24.89 5.1 41.2 71 0.3 32.5
19:20 1014 29.94 843 24.89 5 41.1 71 0.3 32.5
19:25 1014 29.94 843 24.89 4.9 40.9 72 0.4 32.7
19:30 1014 29.94 843 24.89 4.7 40.5 73 0.3 32.5
19:35 1014 29.94 843 24.89 4.6 40.4 74 0.3 32.6
19:40 1014 29.94 843 24.89 4.5 40 74 0.3 32.5
19:45 1014 29.94 843 24.89 4.3 39.7 76 0.4 32.8
19:50 1014 29.94 843 24.89 4.1 39.4 79 0.8 33.4
19:55 1014 29.94 843 24.89 3.8 38.8 79 0.6 33
20:00 1014 29.94 843 24.89 3.7 38.7 79 0.4 32.7
20:05 1014 29.94 843 24.89 3.7 38.7 78 0.3 32.5
20:10 1014 29.94 843 24.89 3.8 38.8 78 0.4 32.7
20:15 1014 29.94 843 24.89 3.8 38.8 78 0.2 32.4
20:20 1014 29.94 843 24.89 3.7 38.7 79 0.4 32.6
20:25 1014 29.94 843 24.89 3.7 38.6 80 0.5 32.9
20:30 1014 29.94 843 24.89 3.6 38.4 79 0.2 32.4
20:35 1014 29.94 843 24.89 3.6 38.4 78 0.1 32.2
20:40 1014 29.94 843 24.89 3.5 38.4 79 0.3 32.6
20:45 1014 29.94 843 24.89 3.5 38.3 79 0.3 32.5
20:50 1014 29.94 843 24.89 3.6 38.5 79 0.3 32.6
20:55 1014 29.94 843 24.89 3.7 38.6 78 0.2 32.4
21:00 1014 29.94 843 24.89 3.9 39.1 77 0.4 32.6
21:05 1014 29.94 843 24.89 4.1 39.4 78 0.6 33.1
21:10 1014 29.94 843 24.89 4.2 39.5 79 0.9 33.6
21:15 1014 29.94 843 24.89 4.3 39.7 77 0.5 32.9
21:20 1014 29.94 843 24.89 4.4 40 76 0.5 32.9
21:25 1014 29.94 843 24.89 4.6 40.2 75 0.6 33.1
21:30 1014 29.94 843 24.89 4.6 40.3 76 0.8 33.4
21:35 1014 29.94 843 24.89 4.7 40.5 76 0.8 33.4
21:40 1014 29.94 843 24.89 4.7 40.4 76 0.8 33.4
21:45 1014 29.94 843 24.89 4.7 40.4 76 0.8 33.4
21:50 1014 29.94 843 24.89 4.7 40.4 77 1 33.7
21:55 1014 29.94 843 24.89 4.6 40.3 77 1 33.7
22:00 1014 29.94 843 24.89 4.5 40.1 79 1.2 34.1
22:05 1014 29.94 843 24.89 4.4 39.9 79 1 33.9
22:10 1014 29.94 843 24.89 4.4 39.9 79 1.1 33.9
22:15 1014 29.94 843 24.89 4.3 39.8 79 1 33.9
22:20 1014 29.94 843 24.89 4.3 39.7 79 1.1 33.9
22:25 1014 29.94 843 24.89 4.2 39.6 79 1 33.7
22:30 1014 29.94 843 24.89 4.2 39.5 80 0.9 33.7
22:35 1014 29.94 843 24.89 4.1 39.4 79 0.9 33.6
22:40 1014 29.94 843 24.89 4.1 39.4 80 0.9 33.6
22:45 1014 29.94 843 24.89 4 39.3 79 0.8 33.5
22:50 1014 29.94 843 24.89 4 39.2 79 0.7 33.3
22:55 1014 29.94 843 24.89 4 39.2 79 0.7 33.2
23:00 1014 29.94 843 24.89 4 39.1 80 0.8 33.4
23:05 1014 29.94 843 24.89 3.9 39.1 79 0.6 33.1
23:10 1014 29.94 843 24.89 4 39.1 79 0.6 33.1
23:15 1014 29.94 843 24.89 4 39.3 78 0.5 33
23:20 1014 29.94 843 24.89 4.1 39.3 79 0.7 33.2
23:25 1014 29.94 843 24.89 4 39.1 79 0.6 33.1
23:30 1014 29.94 843 24.89 3.9 39 79 0.6 33
23:35 1014 29.94 843 24.89 3.9 39 78 0.5 32.9
23:40 1014 29.94 843 24.89 4 39.1 78 0.5 33
23:45 1014 29.94 843 24.89 4 39.3 77 0.5 32.8
23:50 1014 29.94 843 24.89 4.2 39.5 77 0.5 33
23:55 1014 29.94 843 24.89 4.3 39.7 77 0.6 33.2
24:00 1014 29.94 843 24.89 4.3 39.7 77 0.6 33